owner,sensor,date,latitude,longitude,air_pressure(mBar),qcFlag 
TCOON,ioos:station:TCOON:146:1,2017-04-01T00:30:00Z,28.1324,-97.0345,1006.6,1111122 
TCOON,ioos:station:TCOON:146:1,2017-04-01T01:30:00Z,28.1324,-97.0345,1006.9,1111122 
TCOON,ioos:station:TCOON:146:1,2017-04-01T02:30:00Z,28.1324,-97.0345,1007.4,1111122 
TCOON,ioos:station:TCOON:146:1,2017-04-01T03:30:00Z,28.1324,-97.0345,1008.1,1111122 
TCOON,ioos:station:TCOON:146:1,2017-04-01T04:30:00Z,28.1324,-97.0345,1007.6,1111122 
TCOON,ioos:station:TCOON:146:1,2017-04-01T05:30:00Z,28.1324,-97.0345,1007.6,1111122 
TCOON,ioos:station:TCOON:146:1,2017-04-01T06:30:00Z,28.1324,-97.0345,1007.3,1111122 
TCOON,ioos:station:TCOON:146:1,2017-04-01T07:30:00Z,28.1324,-97.0345,1007.3,1111122 
TCOON,ioos:station:TCOON:146:1,2017-04-01T08:30:00Z,28.1324,-97.0345,1007.2,1111122 
TCOON,ioos:station:TCOON:146:1,2017-04-01T09:30:00Z,28.1324,-97.0345,1007.5,1111122 
TCOON,ioos:station:TCOON:146:1,2017-04-01T10:30:00Z,28.1324,-97.0345,1007.6,1111122 
TCOON,ioos:station:TCOON:146:1,2017-04-01T11:30:00Z,28.1324,-97.0345,1007.4,1111122 
TCOON,ioos:station:TCOON:146:1,2017-04-01T12:30:00Z,28.1324,-97.0345,1008.0,1111122 
TCOON,ioos:station:TCOON:146:1,2017-04-01T13:30:00Z,28.1324,-97.0345,1008.3,1111122 
TCOON,ioos:station:TCOON:146:1,2017-04-01T14:30:00Z,28.1324,-97.0345,1008.9,1111122 
TCOON,ioos:station:TCOON:146:1,2017-04-01T15:30:00Z,28.1324,-97.0345,1009.5,1111122 
TCOON,ioos:station:TCOON:146:1,2017-04-01T16:30:00Z,28.1324,-97.0345,1009.7,1111122 
TCOON,ioos:station:TCOON:146:1,2017-04-01T17:30:00Z,28.1324,-97.0345,1010.0,1111122 
TCOON,ioos:station:TCOON:146:1,2017-04-01T18:30:00Z,28.1324,-97.0345,1009.2,1111122 
TCOON,ioos:station:TCOON:146:1,2017-04-01T19:30:00Z,28.1324,-97.0345,1008.5,1111122 
TCOON,ioos:station:TCOON:146:1,2017-04-01T20:30:00Z,28.1324,-97.0345,1008.3,1111122 
TCOON,ioos:station:TCOON:146:1,2017-04-01T21:30:00Z,28.1324,-97.0345,1007.5,1111122 
TCOON,ioos:station:TCOON:146:1,2017-04-01T22:30:00Z,28.1324,-97.0345,1007.5,1111122 
TCOON,ioos:station:TCOON:146:1,2017-04-01T23:30:00Z,28.1324,-97.0345,1007.5,1111122 
TCOON,ioos:station:TCOON:146:1,2017-04-02T00:30:00Z,28.1324,-97.0345,1007.8,1111122 
TCOON,ioos:station:TCOON:146:1,2017-04-02T01:30:00Z,28.1324,-97.0345,1007.7,1111122 
TCOON,ioos:station:TCOON:146:1,2017-04-02T02:30:00Z,28.1324,-97.0345,1007.7,1111122 
TCOON,ioos:station:TCOON:146:1,2017-04-02T03:30:00Z,28.1324,-97.0345,1008.5,1111122 
TCOON,ioos:station:TCOON:146:1,2017-04-02T04:30:00Z,28.1324,-97.0345,1008.3,1111122 
TCOON,ioos:station:TCOON:146:1,2017-04-02T05:30:00Z,28.1324,-97.0345,1008.1,1111122 
TCOON,ioos:station:TCOON:146:1,2017-04-02T06:30:00Z,28.1324,-97.0345,1007.4,1111122 
TCOON,ioos:station:TCOON:146:1,2017-04-02T07:30:00Z,28.1324,-97.0345,1005.8,1111122 
TCOON,ioos:station:TCOON:146:1,2017-04-02T08:30:00Z,28.1324,-97.0345,1005.2,1111122 
TCOON,ioos:station:TCOON:146:1,2017-04-02T09:30:00Z,28.1324,-97.0345,1004.5,1111122 
TCOON,ioos:station:TCOON:146:1,2017-04-02T10:30:00Z,28.1324,-97.0345,1004.5,1111122 
TCOON,ioos:station:TCOON:146:1,2017-04-02T11:30:00Z,28.1324,-97.0345,1004.3,1111122 
TCOON,ioos:station:TCOON:146:1,2017-04-02T12:30:00Z,28.1324,-97.0345,1004.4,1111122 
TCOON,ioos:station:TCOON:146:1,2017-04-02T13:30:00Z,28.1324,-97.0345,1004.6,1111122 
TCOON,ioos:station:TCOON:146:1,2017-04-02T14:30:00Z,28.1324,-97.0345,1005.1,1111122 
TCOON,ioos:station:TCOON:146:1,2017-04-02T15:30:00Z,28.1324,-97.0345,1005.2,1111122 
TCOON,ioos:station:TCOON:146:1,2017-04-02T16:30:00Z,28.1324,-97.0345,1005.9,1111122 
TCOON,ioos:station:TCOON:146:1,2017-04-02T17:30:00Z,28.1324,-97.0345,1004.8,1111122 
TCOON,ioos:station:TCOON:146:1,2017-04-02T18:30:00Z,28.1324,-97.0345,1003.8,1111122 
TCOON,ioos:station:TCOON:146:1,2017-04-02T19:30:00Z,28.1324,-97.0345,1003.1,1111122 
TCOON,ioos:station:TCOON:146:1,2017-04-02T20:30:00Z,28.1324,-97.0345,1002.4,1111122 
TCOON,ioos:station:TCOON:146:1,2017-04-02T21:30:00Z,28.1324,-97.0345,1001.6,1111122 
TCOON,ioos:station:TCOON:146:1,2017-04-02T22:30:00Z,28.1324,-97.0345,1001.5,1111122 
TCOON,ioos:station:TCOON:146:1,2017-04-02T23:30:00Z,28.1324,-97.0345,1001.9,1111122 
TCOON,ioos:station:TCOON:146:1,2017-04-03T00:30:00Z,28.1324,-97.0345,1003.0,1111122 
TCOON,ioos:station:TCOON:146:1,2017-04-03T01:30:00Z,28.1324,-97.0345,1004.0,1111122 
TCOON,ioos:station:TCOON:146:1,2017-04-03T02:30:00Z,28.1324,-97.0345,1005.6,1111122 
TCOON,ioos:station:TCOON:146:1,2017-04-03T03:30:00Z,28.1324,-97.0345,1006.5,1111122 
TCOON,ioos:station:TCOON:146:1,2017-04-03T04:30:00Z,28.1324,-97.0345,1007.1,1111122 
TCOON,ioos:station:TCOON:146:1,2017-04-03T05:30:00Z,28.1324,-97.0345,1007.6,1111122 
TCOON,ioos:station:TCOON:146:1,2017-04-03T06:30:00Z,28.1324,-97.0345,1008.1,1111122 
TCOON,ioos:station:TCOON:146:1,2017-04-03T07:30:00Z,28.1324,-97.0345,1007.9,1111122 
TCOON,ioos:station:TCOON:146:1,2017-04-03T08:30:00Z,28.1324,-97.0345,1007.6,1111122 
TCOON,ioos:station:TCOON:146:1,2017-04-03T09:30:00Z,28.1324,-97.0345,1007.4,1111122 
TCOON,ioos:station:TCOON:146:1,2017-04-03T10:30:00Z,28.1324,-97.0345,1007.8,1111122 
TCOON,ioos:station:TCOON:146:1,2017-04-03T11:30:00Z,28.1324,-97.0345,1008.2,1111122 
TCOON,ioos:station:TCOON:146:1,2017-04-03T12:30:00Z,28.1324,-97.0345,1008.8,1111122 
TCOON,ioos:station:TCOON:146:1,2017-04-03T13:30:00Z,28.1324,-97.0345,1009.2,1111122 
TCOON,ioos:station:TCOON:146:1,2017-04-03T14:30:00Z,28.1324,-97.0345,1009.6,1111122 
TCOON,ioos:station:TCOON:146:1,2017-04-03T15:30:00Z,28.1324,-97.0345,1009.8,1111122 
TCOON,ioos:station:TCOON:146:1,2017-04-03T16:30:00Z,28.1324,-97.0345,1009.4,1111122 
TCOON,ioos:station:TCOON:146:1,2017-04-03T17:30:00Z,28.1324,-97.0345,1009.2,1111122 
TCOON,ioos:station:TCOON:146:1,2017-04-03T18:30:00Z,28.1324,-97.0345,1008.1,1111122 
TCOON,ioos:station:TCOON:146:1,2017-04-03T19:30:00Z,28.1324,-97.0345,1007.2,1111122 
TCOON,ioos:station:TCOON:146:1,2017-04-03T20:30:00Z,28.1324,-97.0345,1006.4,1111122 
TCOON,ioos:station:TCOON:146:1,2017-04-03T21:30:00Z,28.1324,-97.0345,1005.7,1111122 
TCOON,ioos:station:TCOON:146:1,2017-04-03T22:30:00Z,28.1324,-97.0345,1005.2,1111122 
TCOON,ioos:station:TCOON:146:1,2017-04-04T00:30:00Z,28.1324,-97.0345,1005.1,1111122 
TCOON,ioos:station:TCOON:146:1,2017-04-04T01:30:00Z,28.1324,-97.0345,1005.4,1111122 
TCOON,ioos:station:TCOON:146:1,2017-04-04T02:30:00Z,28.1324,-97.0345,1005.9,1111122 
TCOON,ioos:station:TCOON:146:1,2017-04-04T03:30:00Z,28.1324,-97.0345,1006.7,1111122 
TCOON,ioos:station:TCOON:146:1,2017-04-04T04:30:00Z,28.1324,-97.0345,1006.8,1111122 
TCOON,ioos:station:TCOON:146:1,2017-04-04T05:30:00Z,28.1324,-97.0345,1006.6,1111122 
TCOON,ioos:station:TCOON:146:1,2017-04-04T06:30:00Z,28.1324,-97.0345,1006.3,1111122 
TCOON,ioos:station:TCOON:146:1,2017-04-04T07:30:00Z,28.1324,-97.0345,1005.9,1111122 
TCOON,ioos:station:TCOON:146:1,2017-04-04T08:30:00Z,28.1324,-97.0345,1005.3,1111122 
TCOON,ioos:station:TCOON:146:1,2017-04-04T09:30:00Z,28.1324,-97.0345,1005.5,1111122 
TCOON,ioos:station:TCOON:146:1,2017-04-04T10:30:00Z,28.1324,-97.0345,1005.5,1111122 
TCOON,ioos:station:TCOON:146:1,2017-04-04T11:30:00Z,28.1324,-97.0345,1005.7,1111122 
TCOON,ioos:station:TCOON:146:1,2017-04-04T12:30:00Z,28.1324,-97.0345,1005.8,1111122 
TCOON,ioos:station:TCOON:146:1,2017-04-04T13:30:00Z,28.1324,-97.0345,1006.1,1111122 
TCOON,ioos:station:TCOON:146:1,2017-04-04T14:30:00Z,28.1324,-97.0345,1006.1,1111122 
TCOON,ioos:station:TCOON:146:1,2017-04-04T15:30:00Z,28.1324,-97.0345,1006.0,1111122 
TCOON,ioos:station:TCOON:146:1,2017-04-04T16:30:00Z,28.1324,-97.0345,1006.5,1111122 
TCOON,ioos:station:TCOON:146:1,2017-04-04T17:30:00Z,28.1324,-97.0345,1006.0,1111122 
TCOON,ioos:station:TCOON:146:1,2017-04-04T18:30:00Z,28.1324,-97.0345,1005.5,1111122 
TCOON,ioos:station:TCOON:146:1,2017-04-04T19:30:00Z,28.1324,-97.0345,1004.5,1111122 
TCOON,ioos:station:TCOON:146:1,2017-04-04T20:30:00Z,28.1324,-97.0345,1003.6,1111122 
TCOON,ioos:station:TCOON:146:1,2017-04-04T21:30:00Z,28.1324,-97.0345,1002.9,1111122 
TCOON,ioos:station:TCOON:146:1,2017-04-04T22:30:00Z,28.1324,-97.0345,1002.7,1111122 
TCOON,ioos:station:TCOON:146:1,2017-04-06T14:30:00Z,28.1324,-97.0345,1024.1,1111122 
TCOON,ioos:station:TCOON:146:1,2017-04-06T15:30:00Z,28.1324,-97.0345,1024.4,1111122 
TCOON,ioos:station:TCOON:146:1,2017-04-06T16:30:00Z,28.1324,-97.0345,1024.9,1111122 
TCOON,ioos:station:TCOON:146:1,2017-04-06T17:30:00Z,28.1324,-97.0345,1024.3,1111122 
TCOON,ioos:station:TCOON:146:1,2017-04-06T18:30:00Z,28.1324,-97.0345,1023.7,1111122 
TCOON,ioos:station:TCOON:146:1,2017-04-06T19:30:00Z,28.1324,-97.0345,1022.8,1111122 
TCOON,ioos:station:TCOON:146:1,2017-04-06T20:30:00Z,28.1324,-97.0345,1022.1,1111122 
TCOON,ioos:station:TCOON:146:1,2017-04-06T21:30:00Z,28.1324,-97.0345,1021.4,1111122 
TCOON,ioos:station:TCOON:146:1,2017-04-06T22:30:00Z,28.1324,-97.0345,1021.1,1111122 
TCOON,ioos:station:TCOON:146:1,2017-04-06T23:30:00Z,28.1324,-97.0345,1020.7,1111122 
TCOON,ioos:station:TCOON:146:1,2017-04-07T00:30:00Z,28.1324,-97.0345,1020.1,1111122 
TCOON,ioos:station:TCOON:146:1,2017-04-07T01:30:00Z,28.1324,-97.0345,1020.7,1111122 
TCOON,ioos:station:TCOON:146:1,2017-04-07T02:30:00Z,28.1324,-97.0345,1021.5,1111122 
TCOON,ioos:station:TCOON:146:1,2017-04-07T03:30:00Z,28.1324,-97.0345,1022.1,1111122 
TCOON,ioos:station:TCOON:146:1,2017-04-07T04:30:00Z,28.1324,-97.0345,1022.2,1111122 
TCOON,ioos:station:TCOON:146:1,2017-04-07T05:30:00Z,28.1324,-97.0345,1022.6,1111122 
TCOON,ioos:station:TCOON:146:1,2017-04-07T06:30:00Z,28.1324,-97.0345,1022.6,1111122 
TCOON,ioos:station:TCOON:146:1,2017-04-07T07:30:00Z,28.1324,-97.0345,1021.8,1111122 
TCOON,ioos:station:TCOON:146:1,2017-04-07T08:30:00Z,28.1324,-97.0345,1021.6,1111122 
TCOON,ioos:station:TCOON:146:1,2017-04-07T09:30:00Z,28.1324,-97.0345,1021.6,1111122 
TCOON,ioos:station:TCOON:146:1,2017-04-07T10:30:00Z,28.1324,-97.0345,1021.4,1111122 
TCOON,ioos:station:TCOON:146:1,2017-04-07T11:30:00Z,28.1324,-97.0345,1021.3,1111122 
TCOON,ioos:station:TCOON:146:1,2017-04-07T12:30:00Z,28.1324,-97.0345,1021.7,1111122 
TCOON,ioos:station:TCOON:146:1,2017-04-07T13:30:00Z,28.1324,-97.0345,1022.3,1111122 
TCOON,ioos:station:TCOON:146:1,2017-04-07T14:30:00Z,28.1324,-97.0345,1023.3,1111122 
TCOON,ioos:station:TCOON:146:1,2017-04-07T15:30:00Z,28.1324,-97.0345,1024.0,1111122 
TCOON,ioos:station:TCOON:146:1,2017-04-07T16:30:00Z,28.1324,-97.0345,1023.6,1111122 
TCOON,ioos:station:TCOON:146:1,2017-04-07T17:30:00Z,28.1324,-97.0345,1023.1,1111122 
TCOON,ioos:station:TCOON:146:1,2017-04-07T18:30:00Z,28.1324,-97.0345,1022.5,1111122 
TCOON,ioos:station:TCOON:146:1,2017-04-07T19:30:00Z,28.1324,-97.0345,1021.9,1111122 
TCOON,ioos:station:TCOON:146:1,2017-04-07T20:30:00Z,28.1324,-97.0345,1020.8,1111122 
TCOON,ioos:station:TCOON:146:1,2017-04-07T21:30:00Z,28.1324,-97.0345,1020.0,1111122 
TCOON,ioos:station:TCOON:146:1,2017-04-07T22:30:00Z,28.1324,-97.0345,1019.5,1111122 
TCOON,ioos:station:TCOON:146:1,2017-04-07T23:30:00Z,28.1324,-97.0345,1019.5,1111122 
TCOON,ioos:station:TCOON:146:1,2017-04-08T00:30:00Z,28.1324,-97.0345,1019.3,1111122 
TCOON,ioos:station:TCOON:146:1,2017-04-08T01:30:00Z,28.1324,-97.0345,1019.5,1111122 
TCOON,ioos:station:TCOON:146:1,2017-04-08T02:30:00Z,28.1324,-97.0345,1019.7,1111122 
TCOON,ioos:station:TCOON:146:1,2017-04-08T03:30:00Z,28.1324,-97.0345,1019.9,1111122 
TCOON,ioos:station:TCOON:146:1,2017-04-08T04:30:00Z,28.1324,-97.0345,1019.7,1111122 
TCOON,ioos:station:TCOON:146:1,2017-04-08T05:30:00Z,28.1324,-97.0345,1019.1,1111122 
TCOON,ioos:station:TCOON:146:1,2017-04-08T06:30:00Z,28.1324,-97.0345,1018.6,1111122 
TCOON,ioos:station:TCOON:146:1,2017-04-08T07:30:00Z,28.1324,-97.0345,1018.0,1111122 
TCOON,ioos:station:TCOON:146:1,2017-04-08T08:30:00Z,28.1324,-97.0345,1017.5,1111122 
TCOON,ioos:station:TCOON:146:1,2017-04-08T09:30:00Z,28.1324,-97.0345,1016.7,1111122 
TCOON,ioos:station:TCOON:146:1,2017-04-08T10:30:00Z,28.1324,-97.0345,1016.7,1111122 
TCOON,ioos:station:TCOON:146:1,2017-04-08T11:30:00Z,28.1324,-97.0345,1016.8,1111122 
TCOON,ioos:station:TCOON:146:1,2017-04-08T12:30:00Z,28.1324,-97.0345,1017.2,1111122 
TCOON,ioos:station:TCOON:146:1,2017-04-08T13:30:00Z,28.1324,-97.0345,1017.6,1111122 
TCOON,ioos:station:TCOON:146:1,2017-04-08T14:30:00Z,28.1324,-97.0345,1017.7,1111122 
TCOON,ioos:station:TCOON:146:1,2017-04-08T15:30:00Z,28.1324,-97.0345,1017.9,1111122 
TCOON,ioos:station:TCOON:146:1,2017-04-08T16:30:00Z,28.1324,-97.0345,1018.2,1111122 
TCOON,ioos:station:TCOON:146:1,2017-04-08T17:30:00Z,28.1324,-97.0345,1018.1,1111122 
TCOON,ioos:station:TCOON:146:1,2017-04-08T18:30:00Z,28.1324,-97.0345,1017.2,1111122 
TCOON,ioos:station:TCOON:146:1,2017-04-08T19:30:00Z,28.1324,-97.0345,1016.7,1111122 
TCOON,ioos:station:TCOON:146:1,2017-04-08T20:30:00Z,28.1324,-97.0345,1015.6,1111122 
TCOON,ioos:station:TCOON:146:1,2017-04-08T21:30:00Z,28.1324,-97.0345,1014.2,1111122 
TCOON,ioos:station:TCOON:146:1,2017-04-08T22:30:00Z,28.1324,-97.0345,1013.5,1111122 
TCOON,ioos:station:TCOON:146:1,2017-04-08T23:30:00Z,28.1324,-97.0345,1013.6,1111122 
TCOON,ioos:station:TCOON:146:1,2017-04-09T00:30:00Z,28.1324,-97.0345,1013.6,1111122 
TCOON,ioos:station:TCOON:146:1,2017-04-09T01:30:00Z,28.1324,-97.0345,1013.3,1111122 
TCOON,ioos:station:TCOON:146:1,2017-04-09T02:30:00Z,28.1324,-97.0345,1013.9,1111122 
TCOON,ioos:station:TCOON:146:1,2017-04-09T03:30:00Z,28.1324,-97.0345,1014.2,1111122 
TCOON,ioos:station:TCOON:146:1,2017-04-09T04:30:00Z,28.1324,-97.0345,1014.2,1111122 
TCOON,ioos:station:TCOON:146:1,2017-04-09T05:30:00Z,28.1324,-97.0345,1014.1,1111122 
TCOON,ioos:station:TCOON:146:1,2017-04-09T06:30:00Z,28.1324,-97.0345,1013.7,1111122 
TCOON,ioos:station:TCOON:146:1,2017-04-09T07:30:00Z,28.1324,-97.0345,1013.2,1111122 
TCOON,ioos:station:TCOON:146:1,2017-04-09T08:30:00Z,28.1324,-97.0345,1013.0,1111122 
TCOON,ioos:station:TCOON:146:1,2017-04-09T09:30:00Z,28.1324,-97.0345,1012.2,1111122 
TCOON,ioos:station:TCOON:146:1,2017-04-09T10:30:00Z,28.1324,-97.0345,1012.0,1111122 
TCOON,ioos:station:TCOON:146:1,2017-04-09T11:30:00Z,28.1324,-97.0345,1012.0,1111122 
TCOON,ioos:station:TCOON:146:1,2017-04-09T12:30:00Z,28.1324,-97.0345,1012.6,1111122 
TCOON,ioos:station:TCOON:146:1,2017-04-09T13:30:00Z,28.1324,-97.0345,1013.4,1111122 
TCOON,ioos:station:TCOON:146:1,2017-04-09T14:30:00Z,28.1324,-97.0345,1013.8,1111122 
TCOON,ioos:station:TCOON:146:1,2017-04-09T15:30:00Z,28.1324,-97.0345,1014.2,1111122 
TCOON,ioos:station:TCOON:146:1,2017-04-09T16:30:00Z,28.1324,-97.0345,1014.2,1111122 
TCOON,ioos:station:TCOON:146:1,2017-04-09T17:30:00Z,28.1324,-97.0345,1013.8,1111122 
TCOON,ioos:station:TCOON:146:1,2017-04-09T18:30:00Z,28.1324,-97.0345,1013.3,1111122 
TCOON,ioos:station:TCOON:146:1,2017-04-09T19:30:00Z,28.1324,-97.0345,1012.6,1111122 
TCOON,ioos:station:TCOON:146:1,2017-04-09T20:30:00Z,28.1324,-97.0345,1011.6,1111122 
TCOON,ioos:station:TCOON:146:1,2017-04-09T21:30:00Z,28.1324,-97.0345,1011.0,1111122 
TCOON,ioos:station:TCOON:146:1,2017-04-09T22:30:00Z,28.1324,-97.0345,1010.7,1111122 
TCOON,ioos:station:TCOON:146:1,2017-04-09T23:30:00Z,28.1324,-97.0345,1010.7,1111122 
TCOON,ioos:station:TCOON:146:1,2017-04-10T00:30:00Z,28.1324,-97.0345,1011.4,1111122 
TCOON,ioos:station:TCOON:146:1,2017-04-10T01:30:00Z,28.1324,-97.0345,1011.5,1111122 
TCOON,ioos:station:TCOON:146:1,2017-04-10T02:30:00Z,28.1324,-97.0345,1012.2,1111122 
TCOON,ioos:station:TCOON:146:1,2017-04-10T03:30:00Z,28.1324,-97.0345,1012.7,1111122 
TCOON,ioos:station:TCOON:146:1,2017-04-10T04:30:00Z,28.1324,-97.0345,1013.2,1111122 
TCOON,ioos:station:TCOON:146:1,2017-04-10T05:30:00Z,28.1324,-97.0345,1012.6,1111122 
TCOON,ioos:station:TCOON:146:1,2017-04-10T06:30:00Z,28.1324,-97.0345,1012.4,1111122 
TCOON,ioos:station:TCOON:146:1,2017-04-10T07:30:00Z,28.1324,-97.0345,1012.6,1111122 
TCOON,ioos:station:TCOON:146:1,2017-04-10T08:30:00Z,28.1324,-97.0345,1012.3,1111122 
TCOON,ioos:station:TCOON:146:1,2017-04-10T09:30:00Z,28.1324,-97.0345,1011.9,1111122 
TCOON,ioos:station:TCOON:146:1,2017-04-10T10:30:00Z,28.1324,-97.0345,1011.8,1111122 
TCOON,ioos:station:TCOON:146:1,2017-04-10T11:30:00Z,28.1324,-97.0345,1012.2,1111122 
TCOON,ioos:station:TCOON:146:1,2017-04-10T12:30:00Z,28.1324,-97.0345,1012.9,1111122 
TCOON,ioos:station:TCOON:146:1,2017-04-10T13:30:00Z,28.1324,-97.0345,1013.5,1111122 
TCOON,ioos:station:TCOON:146:1,2017-04-10T14:30:00Z,28.1324,-97.0345,1014.2,1111122 
TCOON,ioos:station:TCOON:146:1,2017-04-10T15:30:00Z,28.1324,-97.0345,1014.8,1111122 
TCOON,ioos:station:TCOON:146:1,2017-04-10T16:30:00Z,28.1324,-97.0345,1015.4,1111122 
TCOON,ioos:station:TCOON:146:1,2017-04-10T17:30:00Z,28.1324,-97.0345,1015.3,1111122 
TCOON,ioos:station:TCOON:146:1,2017-04-10T18:30:00Z,28.1324,-97.0345,1015.1,1111122 
TCOON,ioos:station:TCOON:146:1,2017-04-10T20:30:00Z,28.1324,-97.0345,1013.9,1111122 
TCOON,ioos:station:TCOON:146:1,2017-04-10T21:30:00Z,28.1324,-97.0345,1013.5,1111122 
TCOON,ioos:station:TCOON:146:1,2017-04-10T22:30:00Z,28.1324,-97.0345,1013.2,1111122 
TCOON,ioos:station:TCOON:146:1,2017-04-10T23:30:00Z,28.1324,-97.0345,1013.4,1111122 
TCOON,ioos:station:TCOON:146:1,2017-04-11T00:30:00Z,28.1324,-97.0345,1013.5,1111122 
TCOON,ioos:station:TCOON:146:1,2017-04-11T01:30:00Z,28.1324,-97.0345,1014.5,1111122 
TCOON,ioos:station:TCOON:146:1,2017-04-11T02:30:00Z,28.1324,-97.0345,1015.3,1111122 
TCOON,ioos:station:TCOON:146:1,2017-04-11T03:30:00Z,28.1324,-97.0345,1015.9,1111122 
TCOON,ioos:station:TCOON:146:1,2017-04-11T04:30:00Z,28.1324,-97.0345,1016.1,1111122 
TCOON,ioos:station:TCOON:146:1,2017-04-11T05:30:00Z,28.1324,-97.0345,1015.8,1111122 
TCOON,ioos:station:TCOON:146:1,2017-04-11T06:30:00Z,28.1324,-97.0345,1016.1,1111122 
TCOON,ioos:station:TCOON:146:1,2017-04-11T07:30:00Z,28.1324,-97.0345,1015.8,1111122 
TCOON,ioos:station:TCOON:146:1,2017-04-11T08:30:00Z,28.1324,-97.0345,1015.9,1111122 
TCOON,ioos:station:TCOON:146:1,2017-04-11T09:30:00Z,28.1324,-97.0345,1015.0,1111122 
TCOON,ioos:station:TCOON:146:1,2017-04-11T10:30:00Z,28.1324,-97.0345,1015.6,1111122 
TCOON,ioos:station:TCOON:146:1,2017-04-11T11:30:00Z,28.1324,-97.0345,1015.3,1111122 
TCOON,ioos:station:TCOON:146:1,2017-04-11T12:30:00Z,28.1324,-97.0345,1014.4,1111122 
TCOON,ioos:station:TCOON:146:1,2017-04-11T13:30:00Z,28.1324,-97.0345,1015.7,1111122 
TCOON,ioos:station:TCOON:146:1,2017-04-11T14:30:00Z,28.1324,-97.0345,1017.5,1111122 
TCOON,ioos:station:TCOON:146:1,2017-04-11T15:30:00Z,28.1324,-97.0345,1018.8,1111122 
TCOON,ioos:station:TCOON:146:1,2017-04-11T16:30:00Z,28.1324,-97.0345,1018.7,1111122 
TCOON,ioos:station:TCOON:146:1,2017-04-11T17:30:00Z,28.1324,-97.0345,1018.5,1111122 
TCOON,ioos:station:TCOON:146:1,2017-04-11T18:30:00Z,28.1324,-97.0345,1018.6,1111122 
TCOON,ioos:station:TCOON:146:1,2017-04-11T19:30:00Z,28.1324,-97.0345,1017.9,1111122 
TCOON,ioos:station:TCOON:146:1,2017-04-11T20:30:00Z,28.1324,-97.0345,1017.3,1111122 
TCOON,ioos:station:TCOON:146:1,2017-04-11T21:30:00Z,28.1324,-97.0345,1016.8,1111122 
TCOON,ioos:station:TCOON:146:1,2017-04-11T22:30:00Z,28.1324,-97.0345,1017.7,1111122 
TCOON,ioos:station:TCOON:146:1,2017-04-11T23:30:00Z,28.1324,-97.0345,1019.3,1111122 
TCOON,ioos:station:TCOON:146:1,2017-04-12T00:30:00Z,28.1324,-97.0345,1019.7,1111122 
TCOON,ioos:station:TCOON:146:1,2017-04-12T01:30:00Z,28.1324,-97.0345,1014.7,1111122 
TCOON,ioos:station:TCOON:146:1,2017-04-12T02:30:00Z,28.1324,-97.0345,1017.1,1111122 
TCOON,ioos:station:TCOON:146:1,2017-04-12T03:30:00Z,28.1324,-97.0345,1018.5,1111122 
TCOON,ioos:station:TCOON:146:1,2017-04-12T04:30:00Z,28.1324,-97.0345,1019.5,1111122 
TCOON,ioos:station:TCOON:146:1,2017-04-12T05:30:00Z,28.1324,-97.0345,1019.0,1111122 
TCOON,ioos:station:TCOON:146:1,2017-04-12T06:30:00Z,28.1324,-97.0345,1018.8,1111122 
TCOON,ioos:station:TCOON:146:1,2017-04-12T07:30:00Z,28.1324,-97.0345,1018.7,1111122 
TCOON,ioos:station:TCOON:146:1,2017-04-12T08:30:00Z,28.1324,-97.0345,1018.2,1111122 
TCOON,ioos:station:TCOON:146:1,2017-04-12T09:30:00Z,28.1324,-97.0345,1017.6,1111122 
TCOON,ioos:station:TCOON:146:1,2017-04-12T10:30:00Z,28.1324,-97.0345,1018.2,1111122 
TCOON,ioos:station:TCOON:146:1,2017-04-12T11:30:00Z,28.1324,-97.0345,1018.8,1111122 
TCOON,ioos:station:TCOON:146:1,2017-04-12T12:30:00Z,28.1324,-97.0345,1019.0,1111122 
TCOON,ioos:station:TCOON:146:1,2017-04-12T13:30:00Z,28.1324,-97.0345,1019.7,1111122 
TCOON,ioos:station:TCOON:146:1,2017-04-12T14:30:00Z,28.1324,-97.0345,1020.2,1111122 
TCOON,ioos:station:TCOON:146:1,2017-04-12T15:30:00Z,28.1324,-97.0345,1020.2,1111122 
TCOON,ioos:station:TCOON:146:1,2017-04-12T16:30:00Z,28.1324,-97.0345,1020.8,1111122 
TCOON,ioos:station:TCOON:146:1,2017-04-12T17:30:00Z,28.1324,-97.0345,1020.4,1111122 
TCOON,ioos:station:TCOON:146:1,2017-04-12T18:30:00Z,28.1324,-97.0345,1019.6,1111122 
TCOON,ioos:station:TCOON:146:1,2017-04-12T19:30:00Z,28.1324,-97.0345,1019.2,1111122 
TCOON,ioos:station:TCOON:146:1,2017-04-12T20:30:00Z,28.1324,-97.0345,1018.6,1111122 
TCOON,ioos:station:TCOON:146:1,2017-04-12T21:30:00Z,28.1324,-97.0345,1018.2,1111122 
TCOON,ioos:station:TCOON:146:1,2017-04-12T22:30:00Z,28.1324,-97.0345,1017.8,1111122 
TCOON,ioos:station:TCOON:146:1,2017-04-12T23:30:00Z,28.1324,-97.0345,1018.0,1111122 
TCOON,ioos:station:TCOON:146:1,2017-04-13T00:30:00Z,28.1324,-97.0345,1018.0,1111122 
TCOON,ioos:station:TCOON:146:1,2017-04-13T01:30:00Z,28.1324,-97.0345,1018.5,1111122 
TCOON,ioos:station:TCOON:146:1,2017-04-13T02:30:00Z,28.1324,-97.0345,1018.9,1111122 
TCOON,ioos:station:TCOON:146:1,2017-04-13T03:30:00Z,28.1324,-97.0345,1019.4,1111122 
TCOON,ioos:station:TCOON:146:1,2017-04-13T04:30:00Z,28.1324,-97.0345,1019.3,1111122 
TCOON,ioos:station:TCOON:146:1,2017-04-13T05:30:00Z,28.1324,-97.0345,1019.2,1111122 
TCOON,ioos:station:TCOON:146:1,2017-04-13T06:30:00Z,28.1324,-97.0345,1019.3,1111122 
TCOON,ioos:station:TCOON:146:1,2017-04-13T07:30:00Z,28.1324,-97.0345,1018.9,1111122 
TCOON,ioos:station:TCOON:146:1,2017-04-13T08:30:00Z,28.1324,-97.0345,1018.7,1111122 
TCOON,ioos:station:TCOON:146:1,2017-04-13T09:30:00Z,28.1324,-97.0345,1018.5,1111122 
TCOON,ioos:station:TCOON:146:1,2017-04-13T10:30:00Z,28.1324,-97.0345,1018.1,1111122 
TCOON,ioos:station:TCOON:146:1,2017-04-13T11:30:00Z,28.1324,-97.0345,1017.9,1111122 
TCOON,ioos:station:TCOON:146:1,2017-04-13T12:30:00Z,28.1324,-97.0345,1019.0,1111122 
TCOON,ioos:station:TCOON:146:1,2017-04-13T13:30:00Z,28.1324,-97.0345,1020.0,1111122 
TCOON,ioos:station:TCOON:146:1,2017-04-13T14:30:00Z,28.1324,-97.0345,1020.1,1111122 
TCOON,ioos:station:TCOON:146:1,2017-04-13T15:30:00Z,28.1324,-97.0345,1020.4,1111122 
TCOON,ioos:station:TCOON:146:1,2017-04-13T16:30:00Z,28.1324,-97.0345,1021.0,1111122 
TCOON,ioos:station:TCOON:146:1,2017-04-13T17:30:00Z,28.1324,-97.0345,1021.0,1111122 
TCOON,ioos:station:TCOON:146:1,2017-04-13T18:30:00Z,28.1324,-97.0345,1020.2,1111122 
TCOON,ioos:station:TCOON:146:1,2017-04-13T19:30:00Z,28.1324,-97.0345,1019.4,1111122 
TCOON,ioos:station:TCOON:146:1,2017-04-13T20:30:00Z,28.1324,-97.0345,1018.6,1111122 
TCOON,ioos:station:TCOON:146:1,2017-04-13T21:30:00Z,28.1324,-97.0345,1018.0,1111122 
TCOON,ioos:station:TCOON:146:1,2017-04-13T22:30:00Z,28.1324,-97.0345,1017.2,1111122 
TCOON,ioos:station:TCOON:146:1,2017-04-13T23:30:00Z,28.1324,-97.0345,1016.8,1111122 
TCOON,ioos:station:TCOON:146:1,2017-04-14T00:30:00Z,28.1324,-97.0345,1017.2,1111122 
TCOON,ioos:station:TCOON:146:1,2017-04-14T01:30:00Z,28.1324,-97.0345,1017.7,1111122 
TCOON,ioos:station:TCOON:146:1,2017-04-14T02:30:00Z,28.1324,-97.0345,1018.4,1111122 
TCOON,ioos:station:TCOON:146:1,2017-04-14T03:30:00Z,28.1324,-97.0345,1018.2,1111122 
TCOON,ioos:station:TCOON:146:1,2017-04-14T04:30:00Z,28.1324,-97.0345,1018.5,1111122 
TCOON,ioos:station:TCOON:146:1,2017-04-14T05:30:00Z,28.1324,-97.0345,1018.3,1111122 
TCOON,ioos:station:TCOON:146:1,2017-04-14T06:30:00Z,28.1324,-97.0345,1018.3,1111122 
TCOON,ioos:station:TCOON:146:1,2017-04-14T07:30:00Z,28.1324,-97.0345,1017.9,1111122 
TCOON,ioos:station:TCOON:146:1,2017-04-14T08:30:00Z,28.1324,-97.0345,1017.3,1111122 
TCOON,ioos:station:TCOON:146:1,2017-04-14T09:30:00Z,28.1324,-97.0345,1016.8,1111122 